Regional Weather Roundup
Issued by NWS Midland/Odessa, TX

Skip options and go directly to product.
Home | Oldest Version | Next Version | Current Version | All | Text Only | Save Text | Print | Product List | Glossary On

Skip product version selection by date and time.   
244
ASUS44 KMAF 030201
RWRMAF
MIDLAND AREA WEATHER ROUNDUP
NATIONAL WEATHER SERVICE MIDLAND TX
900 PM CDT THU JUL 02 2015

...IN SOUTHWEST TEXAS AND SOUTHEAST NEW MEXICO...

CITY           SKY/WX    TMP DP  RH WIND       PRES   REMARKS
ALPINE         CLEAR     78  60  54 SE15G24   30.05R
ANDREWS        FAIR      82  61  48 SE6       29.98S
ARTESIA        CLOUDY    82  57  42 E18G28    29.97S
BIG SPRING     PTCLDY    84  62  46 SE12      29.97S
CARLSBAD       MOCLDY    89  55  31 SE12      29.93R
DRYDEN           N/A     83  64  52 SE9       29.90R
FORT STOCKTON  CLEAR     81  62  52 SE17G25   29.95R
GUAD PASS      PTCLDY    78  46  32 E31       30.08R
HOBBS          CLOUDY    84  55  37 CALM      30.00S
MARFA          CLEAR    N/A N/A N/A SE13      30.04R
MIDLAND AIRPK  CLEAR     85  62  45 SE15      29.96R
MIDLAND INTL   CLEAR     83  63  50 SE14      29.95R
ODESSA         CLEAR     84  61  45 MISG      29.96R
PECOS          CLEAR     89  58  35 E18       29.89R
PRESIDIO       NOT AVBL
SEMINOLE       PTCLDY    83  58  42 SE6       29.99S
SNYDER         CLEAR     82  65  58 S9        29.95S
WINK           CLEAR     87  60  40 SE13      29.92R
$$
...OTHER STATIONS IN TEXAS...

CITY           SKY/WX    TMP DP  RH WIND       PRES   REMARKS
ABILENE        PTCLDY    84  62  47 S10       29.92R
AMARILLO       MOCLDY    81  64  56 S10       30.02R
AUSTIN         PTCLDY    78  74  87 S7        29.94S
BROWNSVILLE    PTCLDY    79  73  82 SE7       29.94R
CORPUS CHRISTI MOCLDY    81  77  88 SE9       29.92F
DALLAS FTW     MOCLDY    87  68  52 S12       29.89R
DEL RIO        PTCLDY    86  67  52 SE10      29.85F
EL PASO        MOCLDY    97  46  17 SE8       29.88R
HOUSTON INT    MOCLDY    84  73  69 S5        29.96S
LUBBOCK        MOCLDY    82  61  48 S10       29.99R
SAN ANGELO     CLEAR     81  65  58 S3        29.92F
SAN ANTONIO    PTCLDY    81  71  71 SE15      29.94F
WACO           PTCLDY    84  71  65 S14       29.90F
WICHITA FALLS  NOT AVBL
$$
...OTHER LOCATIONS IN NEW MEXICO...

CITY           SKY/WX    TMP DP  RH WIND       PRES   REMARKS
ALAMAGORDO     MOCLDY    91  48  22 E8        29.92S
ALBUQUERQUE    CLOUDY    75  58  55 E18       30.13R THUNDER
CANNON AFB     MOCLDY    78  61  56 SW5       30.06R
CLOVIS         CLOUDY    81  61  50 S6          N/A
HOLLOMAN AFB   CLOUDY    92  50  23 E8        29.89R
ROSWELL        CLOUDY    80  58  46 SE14G22   29.99R
RUIDOSO        MOCLDY    75  50  41 N3        30.24R
SANTA FE       LGT RAIN  63  57  81 N15G24    30.23F
TRUTH OR CONSE MOCLDY    92  47  21 E9        29.95R
TUCUMCARI      CLOUDY    86  58  38 E7        30.02R
$$

USA.gov is the U.S. government's official web portal to all federal, state and local government web resources and services.